Preview of NWS' New Version of Forecast
This preview is not operational and should not be used for support decisions.

Regional Weather Roundup (RWR)

Issued by National Weather Service (NWS)

                            
000
ASUS44 KJAN 160510
RWRMS 

MISSISSIPPI HOURLY WEATHER ROUNDUP
NATIONAL WEATHER SERVICE JACKSON MS
1200 AM CDT MON SEP 16 2019

NOTE: "FAIR: INDICATES FEW OR NO CLOUDS BELOW 12,000 FEET WITH NO
SIGNIFICANT WEATHER AND/OR OBSTRUCTIONS TO VISIBILITY.

MSZ001>002-007>008-010>013-018>021-025>028-034>036-160600-
NORTHWEST MISSISSIPPI
  
CITY           SKY/WX    TMP DP  RH WIND       PRES   REMARKS
BATESVILLE       N/A     72  72 100 CALM      30.06F                  
CLARKSDALE       N/A     75  73  94 CALM      30.07S                  
CLEVELAND      FAIR      76  70  81 CALM      30.05S                  
GREENWOOD      FAIR      76  71  85 NE5       30.05S                  
GREENVILLE     FAIR      75  69  81 CALM      30.04F                  
OLIVE BRANCH   CLEAR     77  70  78 CALM      30.07S                  
OXFORD         FAIR      72  70  94 CALM      30.09S                  
TUNICA           N/A     72  70  94 NE3       30.08S                  
WINONA         FAIR      73  73  99 CALM      30.06F                  
$$

MSZ003>006-009-014>017-022>024-029>033-037>039-160600-
NORTHEAST MISSISSIPPI
  
CITY           SKY/WX    TMP DP  RH WIND       PRES   REMARKS
ABERDEEN       HAZE      70  54  56 CALM      30.07S VSB 1/2          
COLUMBUS AFB   FAIR      75  74  95 CALM      30.05S                  
CORINTH        FAIR      72  72 100 CALM      30.08S FOG              
GOLDN TRIANGLE FAIR      76  74  93 CALM      30.06S                  
STARKVILLE       N/A     72  70  94 CALM      30.07S                  
TUPELO         FAIR      78  71  79 CALM      30.07S                  
$$

MSZ040-058-160600-
CENTRAL MISSISSIPPI
  
CITY           SKY/WX    TMP DP  RH WIND       PRES   REMARKS
JACKSON INTL   FAIR      75  69  81 CALM      30.04F                  
JACKSON HAWKNS FAIR      78  70  76 CALM      30.04F                  
MADISON        FAIR      73  73 100 CALM      30.06S                  
MERIDIAN KEY   FAIR      75  70  84 CALM      30.04S                  
MERIDIAN NAS   FAIR      75  72  90 CALM      30.04F                  
RAYMOND        FAIR      72  72 100 CALM      30.04S                  
VICKSBURG VKS  CLEAR     73  73 100 CALM      30.03F                  
$$

MSZ059>079-160600-
SOUTH MISSISSIPPI
  
CITY           SKY/WX    TMP DP  RH WIND       PRES   REMARKS
BROOKHAVEN     FAIR      73  70  88 CALM      30.05F                  
HATTIESBURG    FAIR      74  71  91 CALM      30.03S                  
LAUREL         CLEAR     73  71  91 NW3       30.03F                  
MCCOMB         FAIR      76  71  85 CALM      30.03F                  
NATCHEZ        FAIR      75  71  87 CALM      30.03F                  
PINE BELT      FAIR      73  70  90 CALM      30.04F                  
$$

MSZ080>082-160600-
COASTAL MISSISSIPPI
  
CITY           SKY/WX    TMP DP  RH WIND       PRES   REMARKS
BILOXI         FAIR      79  75  87 NE3       29.99F                  
PASCAGOULA     FAIR      74  71  91 CALM      30.00F                  
GULFPORT       FAIR      78  72  81 CALM      29.99F                  
$$

LAZ007>009-015>016-023>026-160600-
NORTHEAST LOUISIANA
  
CITY           SKY/WX    TMP DP  RH WIND       PRES   REMARKS
BASTROP        FAIR      74  72  91 CALM      30.04F                  
TALLULAH/VBURG FAIR      76  70  82 CALM      30.03F                  
VIDALIA        FAIR      80  70  72 CALM      30.01F                  
$$